DW4174 Weather Reports


time (UTC)temp
F
wind
direction
speed
knots
gust
knots
rain 1hr
in
rain 24hr
in
rain mn
in
humidity
%
barometer
mb
20260509225333 106 282 6.1 13.9 0.00 0.00 0.00 7 1005.3
20260509224433 106 265 3.5 8.7 0.00 0.00 0.00 7 1005.3
20260509223533 105 247 3.5 7.8 0.00 0.00 0.00 8 1005.4
20260509221733 105 273 7.0 10.4 0.00 0.00 0.00 8 1005.8
20260509220833 106 274 6.1 13.0 0.00 0.00 0.00 7 1005.9
20260509215033 106 257 7.0 11.3 0.00 0.00 0.00 8 1006.3
20260509213233 105 277 7.0 10.4 0.00 0.00 0.00 7 1006.6
20260509212333 105 265 7.0 13.0 0.00 0.00 0.00 8 1006.8
20260509211433 105 284 5.2 13.0 0.00 0.00 0.00 8 1006.9
20260509205633 104 278 5.2 8.7 0.00 0.00 0.00 9 1007.1
20260509204733 104 282 5.2 13.0 0.00 0.00 0.00 9 1007.3
20260509203833 104 278 5.2 12.2 0.00 0.00 0.00 9 1007.5
20260509202933 104 253 4.3 9.6 0.00 0.00 0.00 9 1007.6
20260509202033 104 252 3.5 9.6 0.00 0.00 0.00 10 1007.7
20260509201133 102 302 3.5 8.7 0.00 0.00 0.00 11 1007.9
20260509200233 102 233 3.5 7.0 0.00 0.00 0.00 10 1008.0
20260509195333 102 254 3.5 9.6 0.00 0.00 0.00 11 1008.1
20260509194433 102 294 2.6 7.0 0.00 0.00 0.00 11 1008.2
20260509192633 98 249 2.6 5.2 0.00 0.00 0.00 12 1008.5
20260509191733 100 237 2.6 7.0 0.00 0.00 0.00 12 1008.6
20260509190833 100 185 2.6 5.2 0.00 0.00 0.00 12 1008.7
20260509185933 98 181 2.6 6.1 0.00 0.00 0.00 13 1008.8
20260509184133 98 186 1.7 7.8 0.00 0.00 0.00 13 1009.1
20260509183233 97 296 1.7 5.2 0.00 0.00 0.00 13 1009.2
20260509182333 96 153 2.6 6.1 0.00 0.00 0.00 14 1009.3
20260509181433 96 169 1.7 6.1 0.00 0.00 0.00 14 1009.5
20260509180533 95 135 1.7 7.8 0.00 0.00 0.00 14 1009.6
20260509175633 94 185 2.6 5.2 0.00 0.00 0.00 14 1009.8
20260509174733 95 163 2.6 7.0 0.00 0.00 0.00 15 1009.9
20260509173833 94 138 1.7 6.1 0.00 0.00 0.00 15 1009.9
20260509172033 93 86 2.6 7.8 0.00 0.00 0.00 16 1010.0
20260509170233 91 100 2.6 6.1 0.00 0.00 0.00 17 1010.0
20260509163532 90 137 1.7 4.3 0.00 0.00 0.00 17 1009.9
20260509162634 89 124 2.6 6.1 0.00 0.00 0.00 19 1009.9
20260509161734 88 96 2.6 7.0 0.00 0.00 0.00 18 1009.9
20260509160832 88 110 1.7 6.1 0.00 0.00 0.00 20 1009.9
20260509155934 88 105 1.7 5.2 0.00 0.00 0.00 20 1010.0
20260509155032 87 110 2.6 6.1 0.00 0.00 0.00 20 1009.9
20260509154132 86 141 2.6 5.2 0.00 0.00 0.00 20 1009.9
20260509153233 85 134 2.6 5.2 0.00 0.00 0.00 20 1010.0
20260509152333 84 109 2.6 7.0 0.00 0.00 0.00 22 1010.0
20260509150532 83 108 2.6 6.1 0.00 0.00 0.00 22 1009.9
20260509145632 82 115 2.6 6.1 0.00 0.00 0.00 24 1009.9
20260509144732 81 105 3.5 6.1 0.00 0.00 0.00 24 1009.9
20260509143832 80 98 2.6 7.0 0.00 0.00 0.00 24 1009.8
20260509142032 79 121 1.7 6.1 0.00 0.00 0.00 25 1009.7
20260509141133 78 157 1.7 3.5 0.00 0.00 0.00 26 1009.6
20260509140232 77 104 1.7 5.2 0.00 0.00 0.00 26 1009.7
20260509135332 76 107 2.6 7.0 0.00 0.00 0.00 27 1009.5
20260509133532 74 120 2.6 5.2 0.00 0.00 0.00 28 1009.4
20260509132633 73 109 1.7 6.1 0.00 0.00 0.00 28 1009.1
20260509131732 73 101 2.6 6.1 0.00 0.00 0.00 29 1009.1
20260509130832 72 95 3.5 6.1 0.00 0.00 0.00 28 1008.9
20260509125932 71 93 2.6 6.1 0.00 0.00 0.00 29 1008.8
20260509125032 71 93 2.6 6.1 0.00 0.00 0.00 29 1008.7
20260509124132 71 96 2.6 5.2 0.00 0.00 0.00 29 1008.6
20260509123232 71 100 2.6 5.2 0.00 0.00 0.00 30 1008.5
20260509122332 71 110 1.7 3.5 0.00 0.00 0.00 30 1008.3
20260509121432 71 111 1.7 3.5 0.00 0.00 0.00 30 1008.2
20260509120532 72 107 0.9 2.6 0.00 0.00 0.00 29 1008.2
20260509115632 72 94 1.7 3.5 0.00 0.00 0.00 29 1008.0
20260509114733 72 95 1.7 3.5 0.00 0.00 0.00 29 1008.0
20260509113832 72 94 1.7 3.5 0.00 0.00 0.00 29 1008.0
20260509112932 72 95 1.7 2.6 0.00 0.00 0.00 30 1008.0
20260509111132 73 96 2.6 3.5 0.00 0.00 0.00 30 1007.9
20260509110232 73 101 2.6 5.2 0.00 0.00 0.00 30 1007.9
20260509105332 73 110 1.7 5.2 0.00 0.00 0.00 32 1007.8
20260509104432 73 106 1.7 3.5 0.00 0.00 0.00 32 1007.8
20260509103532 73 105 0.9 5.2 0.00 0.00 0.00 33 1007.8
20260509102632 73 144 0.9 1.7 0.00 0.00 0.00 33 1007.7
20260509100832 73 0 0.0 0.0 0.00 0.00 0.00 33 1007.6
20260509095932 73 0 0.0 0.0 0.00 0.00 0.00 33 1007.6
20260509095032 73 0 0.0 0.0 0.00 0.00 0.00 33 1007.6
20260509094132 73 0 0.0 0.0 0.00 0.00 0.00 32 1007.7
20260509093232 74 0 0.0 0.0 0.00 0.00 0.00 31 1007.7
20260509092332 75 0 0.0 0.0 0.00 0.00 0.00 30 1007.7
20260509091432 75 0 0.0 0.0 0.00 0.00 0.00 30 1007.8
20260509090532 75 0 0.0 0.0 0.00 0.00 0.00 30 1007.8
20260509085632 76 0 0.0 0.0 0.00 0.00 0.00 29 1007.7
20260509084732 76 0 0.0 0.0 0.00 0.00 0.00 29 1007.7
20260509083832 76 0 0.0 0.0 0.00 0.00 0.00 28 1007.7
20260509082932 77 0 0.0 0.0 0.00 0.00 0.00 27 1007.7
20260509082032 76 0 0.0 0.0 0.00 0.00 0.00 27 1007.5
20260509080232 78 0 0.0 0.0 0.00 0.00 0.00 26 1007.5
20260509075332 78 0 0.0 0.0 0.00 0.00 0.00 25 1007.5
20260509074432 78 0 0.0 0.0 0.00 0.00 0.00 25 1007.5
20260509073532 78 0 0.0 0.0 0.00 0.00 0.00 24 1007.4
20260509071732 78 0 0.0 0.0 0.00 0.00 0.00 23 1007.5
20260509065932 79 0 0.0 0.0 0.00 0.00 0.00 22 1007.4
20260509065032 80 0 0.0 0.0 0.00 0.00 0.00 22 1007.3
20260509064132 80 0 0.0 0.0 0.00 0.00 0.00 22 1007.3
20260509063232 80 0 0.0 0.0 0.00 0.00 0.00 21 1007.3
20260509062332 82 252 0.9 2.6 0.00 0.00 0.00 21 1007.3
20260509061432 82 246 0.9 4.3 0.00 0.00 0.00 21 1007.2
20260509060532 82 240 0.0 2.6 0.00 0.00 0.00 22 1007.3
20260509054732 82 0 0.0 0.0 0.00 0.00 0.00 22 1007.1
20260509053832 82 0 0.0 0.0 0.00 0.00 0.00 23 1007.2
20260509052932 83 0 0.0 0.0 0.00 0.00 0.00 21 1007.1
20260509052032 84 0 0.0 0.0 0.00 0.00 0.00 20 1007.1
20260509051132 85 238 0.0 0.9 0.00 0.00 0.00 19 1007.1
20260509050232 86 238 0.0 4.3 0.00 0.00 0.00 18 1007.1
20260509045332 87 236 0.9 2.6 0.00 0.00 0.00 18 1007.1
20260509044432 87 232 0.0 2.6 0.00 0.00 0.00 18 1007.0
20260509042631 90 242 3.5 7.0 0.00 0.00 0.00 16 1006.9
20260509041732 90 244 3.5 7.0 0.00 0.00 0.00 16 1006.8
20260509040832 90 246 1.7 7.0 0.00 0.00 0.00 16 1006.7
20260509021715 95 257 4.3 7.8 0.00 0.00 0.00 12 1005.4
20260509020815 96 253 4.3 7.8 0.00 0.00 0.00 12 1005.3
20260509014115 97 262 7.0 10.4 0.00 0.00 0.00 11 1005.2
20260509012113 98 261 7.8 11.3 0.00 0.00 0.00 11 1005.2
20260509011213 99 280 7.8 11.3 0.00 0.00 0.00 11 1005.4
20260509010313 99 278 6.1 14.8 0.00 0.00 0.00 11 1005.5
20260509005413 100 253 7.0 10.4 0.00 0.00 0.00 11 1005.4
20260509004513 100 264 7.0 12.2 0.00 0.00 0.00 11 1005.5
20260509003613 100 272 6.1 13.0 0.00 0.00 0.00 11 1005.6
20260509002713 101 268 7.0 12.2 0.00 0.00 0.00 11 1005.7
20260509001813 100 267 7.8 12.2 0.00 0.00 0.00 11 1005.7
20260509000913 100 277 7.0 13.0 0.00 0.00 0.00 11 1005.8
20260509000013 100 288 7.8 12.2 0.00 0.00 0.00 11 1005.8
20260508235113 101 270 7.8 12.2 0.00 0.00 0.00 11 1005.9
20260508233313 101 276 8.7 14.8 0.00 0.00 0.00 10 1006.0
20260508232413 101 283 8.7 13.9 0.00 0.00 0.00 10 1006.2
20260508231513 101 286 7.8 14.8 0.00 0.00 0.00 11 1006.3
20260508230613 101 272 8.7 16.5 0.00 0.00 0.00 11 1006.2